Location: Dittelspoint
(48.7198°N, 10.7214°E)
Time: 23:26:36
(UTC+00:00)

Cosmos 1763 Rocket - Pass Details

Date: 09 April 2020
Orbit: 734 x 779 km, 74.0° (Epoch: 29 May)

Event Time Altitude Azimuth Distance (km) Brightness Sun altitude
Rises 19:41:42 0° 339° (NNW) 3,231 7.7 -16.1°
Reaches altitude 10° 19:44:09 10° 344° (NNW) 2,294 6.7 -16.5°
Maximum altitude 19:49:15 55° 62° (ENE) 899 3.7 -17.2°
Enters shadow 19:51:27 31° 125° (SE) 1,280 4.1 -17.5°
